Regional Weather Roundup
Issued by NWS

Home | Current Version | Previous Version | Graphics & Text | Print | Product List | Glossary On
Versions: 1 2 3 4 5 6 7 8 9 10 11 12 13 14 15 16 17 18 19 20 21 22 23 24 25 26 27 28 29 30 31 32 33 34 35 36 37 38 39 40 41 42 43 44 45 46 47 48 49 50
103
ASUS45 KPSR 231110
RWRAZ

ARIZONA HOURLY REGIONAL WEATHER ROUNDUP
NATIONAL WEATHER SERVICE PHOENIX AZ
400 AM MST THU NOV 23 2017

NOTE: FAIR INDICATES FEW OR NO CLOUDS BELOW 12,000 FEET WITH NO
SIGNIFICANT WEATHER AND/OR OBSTRUCTIONS TO VISIBILITY.

AZZ001>003-036-231200-
NORTHWEST ARIZONA

CITY           SKY/WX    TMP DP  RH WIND       PRES   REMARKS
BULLHEAD CITY  CLEAR     64  36  34 S5        30.11S
KINGMAN        CLEAR     47  29  49 E5        30.24F
$$

AZZ004>008-015-016-018-231200-
NORTH CENTRAL ARIZONA

CITY           SKY/WX    TMP DP  RH WIND       PRES   REMARKS
GRAND CANYON   PTCLDY    24  20  84 CALM      30.43F
WILLIAMS       PTCLDY    32  23  69 S9        30.41F WCI  24
PRESCOTT       PTCLDY    41  29  62 S6        30.32F
FLAGSTAFF      PTCLDY    26  21  81 CALM      30.43F
PAYSON         CLEAR     52  28  40 CALM      30.33S
PAGE           PTCLDY    44  30  57 CALM      30.36F
$$

AZZ009>014-017-231200-
NORTHEAST ARIZONA

CITY           SKY/WX    TMP DP  RH WIND       PRES   REMARKS
WINSLOW        MOCLDY    34  25  69 SW8       30.37R WCI  27
SAINT JOHNS    PTCLDY    30  17  58 NW6       30.37R WCI  24
WINDOW ROCK    CLEAR     30  23  75 CALM      30.41S
SHOW LOW       PTCLDY    39  27  60 CALM      30.41F
$$

AZZ540-542>544-546-548-231200-
GREATER PHOENIX AREA

CITY           SKY/WX    TMP DP  RH WIND       PRES   REMARKS
PHOENIX        CLEAR     64  33  31 SE3       30.07S
BUCKEYE        CLEAR     55  23  28 E6        30.09S
LUKE AFB       CLEAR     57  34  41 CALM      30.07S
DEER VALLEY    CLEAR     60  30  32 CALM      30.08F
SCOTTSDALE     CLEAR     59  35  40 CALM      30.10S
MESA-GATEWAY   CLEAR     52  28  40 S5        30.10F
$$

AZZ539-553-231200-
SOUTHWEST MARICOPA COUNTY AND PINAL COUNTY

CITY           SKY/WX    TMP DP  RH WIND       PRES   REMARKS
CASA GRANDE    NOT AVBL
$$

AZZ503-504-507>509-231200-
SOUTHEAST ARIZONA

CITY           SKY/WX    TMP DP  RH WIND       PRES   REMARKS
TUCSON         CLEAR     58  19  22 SE6       30.16S
DAVIS-MONTHAN  CLEAR     57  19  23 SE8       30.14S
NOGALES        CLEAR     49  19  30 CALM      30.20F
SIERRA VISTA   CLEAR     51  17  26 CALM      30.26F
DOUGLAS        PTCLDY    38  15  39 N5        30.24F WCI  34
SAFFORD        CLEAR     41  15  35 N5        30.22S
$$

AZZ532-231200-
SOUTHWEST ARIZONA

CITY           SKY/WX    TMP DP  RH WIND       PRES   REMARKS
YUMA           CLEAR     64  34  32 CALM      30.02F
$$

CAZ041-043-047-048-061-525>527-560>570-231200-
SOUTHERN CALIFORNIA

CITY           SKY/WX    TMP DP  RH WIND       PRES   REMARKS
DOWNTOWN L.A.  CLEAR     71  39  31 NE3       30.00F
L.A. AIRPORT   CLEAR     72  40  31 NE6       30.00F
SAN DIEGO      CLEAR     65  42  43 CALM      30.01S
BURBANK        CLEAR     65  41  41 CALM      30.04S
ONTARIO        CLEAR     61  41  47 CALM      30.05F
RIVERSIDE      CLEAR     65  40  39 NE3       30.05F
PALM SPRINGS   CLEAR     67  40  37 NW8       30.07F
EL CENTRO NAS  CLEAR     61  29  29 W7        30.05S
IMPERIAL       CLEAR     58  36  43 W5        30.02F
BLYTHE         CLEAR     61  31  32 SW5       30.07F
NEEDLES        CLEAR     63  36  36 W5        30.11S
$$

NVZ020-UTZ003-231200-
SOUTHERN NEVADA-UTAH

CITY           SKY/WX    TMP DP  RH WIND       PRES   REMARKS
LAS VEGAS      PTCLDY    58  36  43 SW6       30.19F
SALT LAKE CITY PTCLDY    47  40  76 SE6       30.29F
$$

NMZ009-TXZ055-231200-
NEW MEXICO-WEST TEXAS

CITY           SKY/WX    TMP DP  RH WIND       PRES   REMARKS
ALBUQUERQUE    CLOUDY    41  28  60 NE3       30.32F
EL PASO        PTCLDY    44  26  49 N5        30.25S
$$


........................KEY........................
SKY/WX - SKY CONDITION/WEATHER
TMP    - TEMPERATURE IN FAHRENHEIT
DP     - DEW POINT IN FAHRENHEIT
RH     - RELATIVE HUMIDITY IN PERCENT
WIND   - DIRECTION AND SPEED IN MILES PER HOUR (MPH)
VRB    - VARIABLE WIND DIRECTION
PRES   - MEAN SEA LEVEL PRESSURE IN INCHES OF MERCURY
         F - FALLING PRESSURE   R - RISING PRESSURE
         S - STEADY PRESSURE
VSB    - VISIBILITY IN MILES
HX     - HEAT INDEX IN FAHRENHEIT
WCI    - WIND CHILL INDEX IN FAHRENHEIT
TC     - TEMPERATURE IN CELSIUS WHICH IS ALSO KNOWN AS
         TEMPERATURE IN CENTIGRADE
AFB    - AIR FORCE BASE
         LUKE AFB IS LUKE AIR FORCE BASE
         DAVIS-MONTHAN IS DAVIS-MONTHAN AIR FORCE BASE
NAS    - NAVAL AIR STATION
         EL CENTRO NAS IS EL CENTRO NAVAL AIR STATION
N/A    - NOT AVAILABLE





USA.gov is the U.S. government's official web portal to all federal, state and local government web resources and services.